Weather History for Freeport, IL

Change the Weather History Date:

Monday, December 26, 2011

  Actual Average Record
Temperature  
Mean Temperature 31 °F -  
Max Temperature 41 °F 26 °F 57 °F (1982)
Min Temperature 21 °F 8 °F -12 °F (1983)
Degree Days  
Heating Degree Days 34    
Moisture  
Dew Point 25 °F    
Average Humidity 78    
Maximum Humidity 89    
Minimum Humidity 59    
Precipitation  
Precipitation 0.00 in - - ()
Sea Level Pressure  
Sea Level Pressure 30.16 in    
Wind  
Wind Speed 9 mph (South)    
Max Wind Speed 24 mph    
Max Gust Speed 31 mph    
Visibility 10 miles    
Events      
Averages and records for this station are not official NWS values.
T = Trace of Precipitation, MM = Missing Value Source: NWS Daily Summary

Daily Weather History Graph

Daily Weather History Graph

Search for Another Location

Airport:

Trip Planner

Search our weather history database for the weather conditions in past years. The results will help you decide how hot, cold, wet, or windy it might be!

Date:

Astronomy

Dec. 26, 2011 Rise Set
Actual Time 7:25 AM CST 4:31 PM CST
Civil Twilight 6:53 AM CST 5:03 PM CST
Nautical Twilight 6:18 AM CST 5:39 PM CST
Astronomical Twilight 5:44 AM CST 6:13 PM CST
Moon 8:43 AM CST (12/26) 7:02 PM CST (12/26)
Length of Visible Light 10h 09m
Length of Day
9h 06m
Waxing Crescent, 5% of the Moon is Illuminated
Dec 26
Waxing Crescent
Jan 1
First Quarter
Jan 9
Full
Jan 16
Last Quarter
Jan 23
New

Hourly Weather History & Observations

Time (CST) Temp. Windchill Dew Point Humidity Pressure Visibility Wind Dir Wind Speed Gust Speed Precip Events Conditions
12:15 AM 29.3 °F 23.2 °F 24.8 °F 83% 30.31 in 10.0 mi SW 5.8 mph - N/A   Clear
12:35 AM 28.2 °F 22.0 °F 23.9 °F 84% 30.31 in 10.0 mi SW 5.8 mph - N/A   Clear
12:55 AM 27.0 °F 21.6 °F 22.8 °F 84% 30.31 in 10.0 mi SW 4.6 mph - N/A   Clear
1:15 AM 27.0 °F 21.6 °F 22.8 °F 84% 30.31 in 10.0 mi SW 4.6 mph - N/A   Clear
1:35 AM 26.1 °F 19.4 °F 22.3 °F 86% 30.30 in 10.0 mi SSW 5.8 mph - N/A   Clear
1:55 AM 26.6 °F 21.2 °F 23.0 °F 86% 30.30 in 10.0 mi SW 4.6 mph - N/A   Clear
2:15 AM 25.5 °F 21.3 °F 21.6 °F 85% 30.30 in 10.0 mi SSW 3.5 mph - N/A   Clear
2:35 AM 25.2 °F 20.9 °F 21.7 °F 87% 30.30 in 10.0 mi SSW 3.5 mph - N/A   Clear
2:55 AM 21.9 °F 14.5 °F 18.5 °F 87% 30.29 in 10.0 mi South 5.8 mph - N/A   Clear
3:15 AM 21.9 °F 15.7 °F 19.2 °F 89% 30.29 in 10.0 mi South 4.6 mph - N/A   Clear
3:35 AM 22.1 °F 17.4 °F 19.0 °F 88% 30.28 in 10.0 mi SSE 3.5 mph - N/A   Clear
3:55 AM 21.9 °F 14.5 °F 18.9 °F 88% 30.27 in 10.0 mi South 5.8 mph - N/A   Clear
4:15 AM 21.9 °F 13.4 °F 18.9 °F 88% 30.27 in 10.0 mi South 6.9 mph - N/A   Clear
4:35 AM 23.0 °F 13.9 °F 20.1 °F 89% 30.26 in 10.0 mi South 8.1 mph - N/A   Clear
4:55 AM 23.9 °F 14.2 °F 21.0 °F 89% 30.25 in 10.0 mi South 9.2 mph - N/A   Clear
5:15 AM 24.4 °F 15.6 °F 21.2 °F 87% 30.25 in 10.0 mi South 8.1 mph - N/A   Clear
5:35 AM 24.8 °F 15.3 °F 21.2 °F 86% 30.24 in 10.0 mi SSE 9.2 mph - N/A   Clear
5:55 AM 23.4 °F 16.2 °F 19.9 °F 87% 30.24 in 10.0 mi SSE 5.8 mph - N/A   Clear
6:15 AM 22.3 °F 13.9 °F 19.4 °F 89% 30.22 in 10.0 mi SSE 6.9 mph - N/A   Clear
6:35 AM 23.0 °F 13.9 °F 20.1 °F 89% 30.21 in 10.0 mi SE 8.1 mph - N/A   Clear
6:55 AM 24.4 °F 13.5 °F 21.2 °F 87% 30.21 in 10.0 mi SSE 11.5 mph - N/A   Clear
7:15 AM 23.5 °F 13.7 °F 20.3 °F 87% 30.21 in 10.0 mi SSE 9.2 mph - N/A   Clear
7:35 AM 24.4 °F 14.9 °F 21.2 °F 87% 30.21 in 10.0 mi SSE 9.2 mph - N/A   Clear
7:55 AM 24.6 °F 15.1 °F 21.2 °F 87% 30.21 in 10.0 mi SSE 9.2 mph - N/A   Clear
8:15 AM 26.6 °F 18.2 °F 23.0 °F 86% 30.20 in 10.0 mi SSE 8.1 mph - N/A   Clear
8:35 AM 28.4 °F 19.7 °F 24.3 °F 84% 30.20 in 10.0 mi South 9.2 mph - N/A   Clear
8:55 AM 30.2 °F 19.3 °F 26.6 °F 86% 30.20 in 10.0 mi South 15.0 mph - N/A   Clear
9:15 AM 32.0 °F 22.1 °F 26.6 °F 80% 30.20 in 10.0 mi South 13.8 mph - N/A   Clear
9:35 AM 32.4 °F 22.5 °F 27.1 °F 81% 30.20 in 10.0 mi South 13.8 mph 19.6 mph N/A   Clear
9:55 AM 34.2 °F 23.3 °F 28.0 °F 78% 30.19 in 10.0 mi South 18.4 mph - N/A   Clear
10:15 AM 35.8 °F 26.1 °F 29.1 °F 77% 30.18 in 10.0 mi South 16.1 mph - N/A   Clear
10:35 AM 36.7 °F 26.6 °F 29.3 °F 75% 30.18 in 10.0 mi South 18.4 mph - N/A   Clear
10:55 AM 36.7 °F 26.3 °F 28.6 °F 72% 30.16 in 10.0 mi South 19.6 mph - N/A   Clear
11:15 AM 37.6 °F 27.1 °F 29.3 °F 72% 30.14 in 10.0 mi South 20.7 mph 27.6 mph N/A   Clear
11:35 AM 39.2 °F 28.7 °F 30.2 °F 70% 30.13 in 10.0 mi South 23.0 mph 28.8 mph N/A   Clear
11:55 AM 39.2 °F 28.5 °F 29.5 °F 68% 30.11 in 10.0 mi South 24.2 mph 28.8 mph N/A   Clear
12:15 PM 39.4 °F 29.8 °F 28.8 °F 66% 30.10 in 10.0 mi SSW 19.6 mph 28.8 mph N/A   Clear
12:35 PM 41.9 °F 32.8 °F 30.0 °F 63% 30.09 in 10.0 mi SSW 20.7 mph 31.1 mph N/A   Clear
12:55 PM 41.9 °F 34.0 °F 29.5 °F 61% 30.09 in 10.0 mi SSW 16.1 mph 26.5 mph N/A   Clear
1:15 PM 41.9 °F 32.6 °F 28.4 °F 59% 30.07 in 10.0 mi SSW 21.9 mph 28.8 mph N/A   Clear
1:35 PM 41.9 °F 33.7 °F 28.4 °F 59% 30.06 in 10.0 mi SSW 17.3 mph 26.5 mph N/A   Clear
1:55 PM 41.2 °F 33.0 °F 28.8 °F 61% 30.05 in 10.0 mi South 16.1 mph - N/A   Clear
2:15 PM 41.2 °F 33.7 °F 29.7 °F 64% 30.03 in 10.0 mi South 13.8 mph 19.6 mph N/A   Clear
2:35 PM 41.9 °F 34.3 °F 28.8 °F 60% 30.00 in 10.0 mi South 15.0 mph - N/A   Clear
2:55 PM 39.6 °F 32.5 °F 28.6 °F 65% 29.99 in 10.0 mi South 11.5 mph - N/A   Clear
3:15 PM 39.2 °F 32.5 °F 28.4 °F 65% 30.00 in 10.0 mi South 10.4 mph - N/A   Clear
3:35 PM 39.2 °F 31.2 °F 28.8 °F 66% 30.01 in 10.0 mi SSW 13.8 mph 17.3 mph N/A   Clear
3:55 PM 39.2 °F 32.5 °F 28.9 °F 67% 30.01 in 10.0 mi South 10.4 mph 13.8 mph N/A   Clear
4:15 PM 39.2 °F 31.2 °F 29.1 °F 67% 30.01 in 10.0 mi South 13.8 mph 20.7 mph N/A   Clear
4:35 PM 37.6 °F 28.4 °F 29.5 °F 73% 30.00 in 10.0 mi South 16.1 mph 21.9 mph N/A   Clear
4:55 PM 37.6 °F 28.1 °F 29.7 °F 73% 30.01 in 10.0 mi South 17.3 mph 24.2 mph N/A   Clear
5:15 PM 36.9 °F 27.8 °F 29.5 °F 75% 29.99 in 10.0 mi South 15.0 mph - N/A   Clear
5:35 PM 36.7 °F 28.4 °F 29.8 °F 76% 29.98 in 10.0 mi South 12.7 mph - N/A   Scattered Clouds
5:55 PM 36.7 °F 28.0 °F 29.7 °F 76% 29.97 in 10.0 mi South 13.8 mph - N/A   Overcast
6:15 PM 36.7 °F 28.4 °F 29.1 °F 74% 29.98 in 10.0 mi South 12.7 mph - N/A   Overcast
6:35 PM 36.7 °F 28.0 °F 28.9 °F 74% 29.97 in 10.0 mi South 13.8 mph - N/A   Overcast
6:55 PM 36.7 °F 27.2 °F 29.1 °F 74% 29.96 in 10.0 mi South 16.1 mph - N/A   Overcast
7:15 PM 36.7 °F 26.9 °F 29.3 °F 75% 29.97 in 10.0 mi South 17.3 mph 23.0 mph N/A   Overcast
7:35 PM 36.7 °F 28.0 °F 29.5 °F 75% 29.96 in 10.0 mi South 13.8 mph - N/A   Overcast
7:55 PM 36.7 °F 27.6 °F 29.7 °F 76% 29.94 in 10.0 mi South 15.0 mph 20.7 mph N/A   Overcast
8:15 PM 36.7 °F 28.0 °F 29.8 °F 76% 29.94 in 10.0 mi South 13.8 mph 19.6 mph N/A   Overcast
8:35 PM 36.7 °F 28.4 °F 29.7 °F 76% 29.91 in 10.0 mi South 12.7 mph - N/A   Overcast
8:55 PM 36.7 °F 28.9 °F 29.8 °F 76% 29.91 in 10.0 mi SSW 11.5 mph 17.3 mph N/A   Overcast
9:15 PM 36.7 °F 28.9 °F 30.0 °F 77% 29.90 in 10.0 mi South 11.5 mph - N/A   Overcast
9:35 PM 36.7 °F 28.4 °F 30.2 °F 77% 29.89 in 10.0 mi South 12.7 mph 17.3 mph N/A Rain Light Rain
9:55 PM 35.6 °F 26.2 °F 30.2 °F 81% 29.87 in 10.0 mi South 15.0 mph - N/A   Light Drizzle
10:15 PM 34.2 °F 24.0 °F 30.2 °F 85% 29.85 in 10.0 mi SSE 16.1 mph - N/A   Light Drizzle
10:35 PM 33.8 °F 24.3 °F 30.2 °F 87% 29.85 in 10.0 mi South 13.8 mph - N/A   Scattered Clouds
10:55 PM 34.2 °F 26.2 °F 30.0 °F 85% 29.84 in 10.0 mi South 10.4 mph - N/A   Scattered Clouds
11:15 PM 34.2 °F 25.7 °F 30.0 °F 85% 29.83 in 10.0 mi South 11.5 mph - N/A   Overcast
11:35 PM 34.2 °F 25.7 °F 30.0 °F 85% 29.83 in 10.0 mi SSW 11.5 mph - N/A   Overcast
11:55 PM 34.2 °F 24.8 °F 30.0 °F 85% 29.82 in 10.0 mi South 13.8 mph - N/A   Overcast